Location: Brno
(49.2000°N, 16.6330°E)
Time: 23:20:22
(UTC+01:00)

BREEZE M DEB (TANK) - Visible Passes

Search period start: 22 November 2017 00:00
Search period end: 02 December 2017 00:00
Orbit: 305 x 11953 km, 49.5° (Epoch: 22 November)

Date Brightness Start Highest point End Pass type
(mag) Time Alt. Az. Time Alt. Az. Time Alt. Az.
22 Nov 8.1 00:59:22 10° WNW 02:14:01 17° SW 02:31:07 10° SSW visible
22 Nov 5.2 16:04:05 10° SW 16:10:21 73° SSE 16:37:46 10° ENE visible
22 Nov 6.7 20:03:49 10° WNW 20:19:19 82° SSW 21:36:47 10° SE visible
23 Nov 8.0 00:07:38 10° WNW 01:25:51 21° SSW 01:47:57 10° SSW visible
23 Nov 6.4 19:14:07 10° W 19:27:06 87° SSW 19:47:58 43° ESE visible
23 Nov 7.9 23:16:39 10° WNW 00:37:28 23° S 01:01:16 10° S visible
24 Nov 6.1 18:24:31 10° W 18:35:19 90° N 19:00:51 32° ESE visible
24 Nov 7.7 22:26:08 10° WNW 22:50:37 55° SW 00:11:43 10° S visible
25 Nov 5.8 17:34:58 10° W 17:43:58 89° N 18:13:52 21° E visible
25 Nov 7.4 21:35:54 10° WNW 21:57:24 63° SW 23:19:36 10° SSE visible
26 Nov 8.4 01:48:32 10° WNW 02:51:45 - SW 01:58:15 15° W visible
26 Nov 5.5 16:45:30 10° WSW 16:53:01 88° SSE 17:27:02 12° E visible
26 Nov 7.1 20:45:52 10° WNW 21:04:22 70° SW 22:24:58 10° SSE visible
27 Nov 8.2 00:53:14 10° WNW 02:02:29 13° SW 02:10:45 10° SW visible
27 Nov 5.1 15:56:08 10° WSW 16:02:28 81° SSE 16:30:47 10° ENE visible
27 Nov 6.8 19:56:00 10° WNW 20:11:40 77° SSW 21:27:47 10° SE visible
28 Nov 8.1 00:00:36 10° WNW 01:12:51 18° SSW 01:30:27 10° SSW visible
28 Nov 6.5 19:06:13 10° WNW 19:19:24 83° SSW 19:46:24 37° ESE visible
28 Nov 8.0 23:09:07 10° WNW 23:35:09 40° WSW 00:45:48 10° SSW visible
29 Nov 6.2 18:16:31 10° W 18:27:32 88° SSW 19:00:32 26° ESE visible
29 Nov 7.8 22:18:17 10° WNW 22:42:14 48° SW 23:57:48 10° S visible
30 Nov 5.9 17:26:52 10° W 17:36:03 89° N 18:15:17 15° ESE visible
30 Nov 7.5 21:27:51 10° WNW 21:49:09 56° SW 23:06:57 10° SSE visible
01 Dec 8.5 01:50:53 10° W 01:59:47 11° W 02:00:27 11° W visible
01 Dec 5.5 16:37:17 10° W 16:44:56 89° N 17:22:52 10° E visible
01 Dec 7.2 20:37:40 10° WNW 20:56:08 64° SW 22:13:28 10° SSE visible
